Location: Linton
(52.0940°N, 0.2850°E)
Time: 04:36:01
(UTC+01:00)

ISS - Pass Details

Date: 08 October 2017
Orbit: 401 x 408 km, 51.6° (Epoch: 19 October)

Event Time Altitude Azimuth Distance (km) Brightness Sun altitude
Rises 20:11:37 0° 281° (W) 2,329 1.8 -17.9°
Reaches altitude 10° 20:13:44 10° 276° (W) 1,468 0.3 -18.2°
Maximum altitude 20:16:55 49° 200° (SSW) 532 -3.3 -18.7°
Enters shadow 20:17:17 46° 176° (S) 553 -3.4 -18.7°
